Change the Weather History Date:

Wednesday, May 15, 2013

  Actual Average (KACT) Record (KACT)
Temperature  
Mean Temperature 73 °F 74 °F  
Max Temperature 78 °F 85 °F 96 °F (1925)
Min Temperature 62 °F 64 °F 45 °F (2014)
Degree Days  
Heating Degree Days 0 0  
Month to date heating degree days 4  
Since 1 July heating degree days 2140  
Cooling Degree Days 8 9  
Month to date cooling degree days 114  
Year to date cooling degree days 268  
Growing Degree Days 23 (Base 50)    
Moisture  
Dew Point 65 °F    
Average Humidity 80    
Maximum Humidity 94    
Minimum Humidity 69    
Precipitation  
Precipitation 0.43 in 0.15 in 2.87 in (1922)
Month to date precipitation 2.07  
Year to date precipitation 12.66  
Sea Level Pressure  
Sea Level Pressure 29.95 in    
Wind  
Wind Speed 15 mph (SSE)    
Max Wind Speed 29 mph    
Max Gust Speed 32 mph    
Visibility 9 miles    
Events Rain , Thunderstorm    
T = Trace of Precipitation, MM = Missing Value Source: NWS Daily Summary

Daily Weather History Graph

Daily Weather History Graph

Search for Another Location

Airport or City:

Trip Planner

Search our weather history database for the weather conditions in past years. The results will help you decide how hot, cold, wet, or windy it might be!

Date:

Astronomy

May. 15, 2013 Rise Set
Actual Time 6:30 AM CDT 8:19 PM CDT
Civil Twilight 6:03 AM CDT 8:46 PM CDT
Nautical Twilight 5:31 AM CDT 9:18 PM CDT
Astronomical Twilight 4:57 AM CDT 9:53 PM CDT
Moon 11:04 AM CDT (5/15) 12:08 AM CDT (5/15)
Length of Visible Light 14h 42m
Length of Day
13h 48m
Waxing Crescent, 27% of the Moon is Illuminated
May 15
Waxing Crescent
May 17
First Quarter
May 24
Full
May 31
Last Quarter
Jun 8
New

Hourly Weather History & Observations

Time (CDT) Temp. Dew Point Humidity Pressure Visibility Wind Dir Wind Speed Gust Speed Precip Events Conditions
12:15 AM 71.6 °F 62.6 °F 73% 30.05 in 10.0 mi SSE 16.1 mph 23.0 mph N/A   Clear
12:35 AM 71.6 °F 62.6 °F 73% 30.07 in 10.0 mi South 13.8 mph 20.7 mph N/A   Clear
12:55 AM 71.6 °F 62.6 °F 73% 30.08 in 10.0 mi South 12.7 mph 19.6 mph N/A   Clear
1:35 AM 71.6 °F 62.6 °F 73% 30.08 in 10.0 mi South 15.0 mph - N/A   Overcast
1:55 AM 71.6 °F 64.4 °F 78% 30.07 in 10.0 mi SSE 15.0 mph 19.6 mph N/A   Mostly Cloudy
2:15 AM 71.6 °F 62.6 °F 73% 30.06 in 10.0 mi SSE 16.1 mph 21.9 mph N/A   Mostly Cloudy
2:35 AM 71.6 °F 62.6 °F 73% 30.06 in 10.0 mi SSE 12.7 mph 19.6 mph N/A   Mostly Cloudy
2:55 AM 71.6 °F 64.4 °F 78% 30.05 in 10.0 mi SSE 13.8 mph - N/A   Mostly Cloudy
3:15 AM 71.6 °F 62.6 °F 73% 30.04 in 10.0 mi SSE 12.7 mph - N/A   Overcast
3:35 AM 69.8 °F 62.6 °F 78% 30.03 in 10.0 mi SSE 16.1 mph - N/A   Mostly Cloudy
3:55 AM 69.8 °F 62.6 °F 78% 30.03 in 10.0 mi SSE 12.7 mph - N/A   Scattered Clouds
4:15 AM 69.8 °F 62.6 °F 78% 30.03 in 10.0 mi SSE 13.8 mph 17.3 mph N/A   Scattered Clouds
4:35 AM 69.8 °F 62.6 °F 78% 30.03 in 10.0 mi SSE 15.0 mph 20.7 mph N/A   Scattered Clouds
4:55 AM 69.8 °F 62.6 °F 78% 30.02 in 10.0 mi SSE 16.1 mph 20.7 mph N/A   Scattered Clouds
5:15 AM 69.8 °F 62.6 °F 78% 30.01 in 10.0 mi SE 13.8 mph 19.6 mph N/A   Scattered Clouds
5:35 AM 69.8 °F 62.6 °F 78% 30.02 in 10.0 mi SSE 10.4 mph 21.9 mph N/A   Scattered Clouds
5:55 AM 69.8 °F 62.6 °F 78% 30.01 in 10.0 mi SSE 13.8 mph 21.9 mph N/A   Overcast
6:15 AM 69.8 °F 62.6 °F 78% 30.01 in 10.0 mi South 15.0 mph 19.6 mph N/A Rain Light Rain
6:35 AM 68.0 °F 62.6 °F 83% 29.98 in 7.0 mi SSE 11.5 mph - 0.02 in Rain Light Rain
6:55 AM 68.0 °F 62.6 °F 83% 30.01 in 7.0 mi SSE 13.8 mph 19.6 mph 0.02 in   Mostly Cloudy
7:15 AM 68.0 °F 64.4 °F 88% 30.02 in 5.0 mi SSE 13.8 mph - N/A   Overcast
7:35 AM 68.0 °F 64.4 °F 88% 30.02 in 7.0 mi SSE 13.8 mph 17.3 mph N/A   Overcast
7:55 AM 68.0 °F 64.4 °F 88% 30.02 in 7.0 mi SSE 12.7 mph - N/A   Overcast
8:15 AM 68.0 °F 64.4 °F 88% 30.02 in 7.0 mi SSE 12.7 mph 16.1 mph N/A   Overcast
8:35 AM 68.0 °F 64.4 °F 88% 30.01 in 7.0 mi SE 9.2 mph 16.1 mph N/A   Overcast
8:55 AM 68.0 °F 64.4 °F 88% 30.03 in 7.0 mi SSE 10.4 mph - N/A   Overcast
9:15 AM 69.8 °F 64.4 °F 83% 30.03 in 7.0 mi SSE 15.0 mph - N/A   Mostly Cloudy
9:35 AM 69.8 °F 66.2 °F 88% 30.03 in 10.0 mi SSE 13.8 mph - N/A   Mostly Cloudy
9:55 AM 71.6 °F 64.4 °F 78% 30.03 in 10.0 mi South 15.0 mph 19.6 mph N/A   Overcast
10:15 AM 71.6 °F 64.4 °F 78% 30.03 in 10.0 mi South 12.7 mph 20.7 mph N/A   Overcast
10:35 AM 71.6 °F 64.4 °F 78% 30.02 in 10.0 mi SSE 13.8 mph 20.7 mph N/A   Overcast
10:55 AM 71.6 °F 64.4 °F 78% 30.03 in 10.0 mi SSE 16.1 mph 20.7 mph N/A   Overcast
11:15 AM 69.8 °F 64.4 °F 83% 30.03 in 5.0 mi SSE 16.1 mph - N/A   Overcast
11:35 AM 69.8 °F 66.2 °F 88% 30.02 in 4.0 mi SSE 10.4 mph 16.1 mph N/A   Overcast
11:55 AM 69.8 °F 66.2 °F 88% 30.01 in 7.0 mi SE 12.7 mph - N/A   Overcast
12:15 PM 71.6 °F 66.2 °F 83% 30.00 in 10.0 mi SSE 13.8 mph 17.3 mph N/A   Overcast
12:55 PM 69.8 °F 66.2 °F 88% 29.98 in 3.0 mi SSE 12.7 mph 19.6 mph N/A Rain Light Rain
1:15 PM 71.6 °F 66.2 °F 83% 29.98 in 7.0 mi SSE 10.4 mph - N/A   Overcast
1:35 PM 69.8 °F 66.2 °F 88% 29.98 in 5.0 mi SSE 17.3 mph 20.7 mph N/A   Overcast
1:55 PM 69.8 °F 66.2 °F 88% 29.96 in 4.0 mi SSE 15.0 mph 19.6 mph 0.02 in Rain Light Rain
2:15 PM 69.8 °F 68.0 °F 94% 29.95 in 4.0 mi SSE 13.8 mph 25.3 mph N/A   Overcast
2:35 PM 69.8 °F 68.0 °F 94% 29.95 in 5.0 mi SSE 11.5 mph 20.7 mph N/A Thunderstorm Overcast
2:55 PM 71.6 °F 68.0 °F 88% 29.92 in 10.0 mi SE 18.4 mph 24.2 mph N/A   Overcast
3:15 PM 71.6 °F 68.0 °F 88% 29.91 in 10.0 mi SSE 21.9 mph 25.3 mph N/A   Overcast
3:35 PM 71.6 °F 68.0 °F 88% 29.91 in 10.0 mi SSE 18.4 mph 23.0 mph N/A   Overcast
3:55 PM 73.4 °F 68.0 °F 83% 29.90 in 10.0 mi SE 16.1 mph 24.2 mph N/A   Overcast
4:35 PM 73.4 °F 68.0 °F 83% 29.89 in 10.0 mi South 12.7 mph - N/A   Overcast
4:55 PM 77.0 °F 68.0 °F 74% 29.87 in 10.0 mi SSE 17.3 mph 24.2 mph N/A   Mostly Cloudy
5:15 PM 77.0 °F 68.0 °F 74% 29.85 in 10.0 mi SE 15.0 mph 25.3 mph N/A   Clear
5:35 PM 77.0 °F 68.0 °F 74% 29.84 in 10.0 mi SSE 15.0 mph 25.3 mph N/A   Clear
5:55 PM 78.8 °F 68.0 °F 69% 29.83 in 10.0 mi SSE 19.6 mph 24.2 mph N/A   Scattered Clouds
6:15 PM 77.0 °F 68.0 °F 74% 29.81 in 10.0 mi SSE 20.7 mph 27.6 mph N/A   Scattered Clouds
6:35 PM 78.8 °F 68.0 °F 69% 29.79 in 10.0 mi SSE 19.6 mph 27.6 mph N/A   Clear
6:55 PM 77.0 °F 68.0 °F 74% 29.79 in 10.0 mi SE 17.3 mph 25.3 mph N/A   Scattered Clouds
7:15 PM 75.2 °F 68.0 °F 78% 29.78 in 10.0 mi SE 17.3 mph 21.9 mph N/A   Scattered Clouds
7:35 PM 77.0 °F 68.0 °F 74% 29.78 in 10.0 mi SSE 18.4 mph 26.5 mph N/A   Clear
7:55 PM 77.0 °F 68.0 °F 74% 29.78 in 10.0 mi SSE 17.3 mph 25.3 mph N/A Thunderstorm Scattered Clouds
8:15 PM 75.2 °F 66.2 °F 73% 29.78 in 10.0 mi SE 17.3 mph 23.0 mph N/A Thunderstorm Thunderstorm
8:35 PM 75.2 °F 66.2 °F 73% 29.79 in 10.0 mi SSE 16.1 mph 24.2 mph N/A Thunderstorm Scattered Clouds
8:55 PM 73.4 °F 66.2 °F 78% 29.77 in 10.0 mi SE 18.4 mph 27.6 mph N/A   Scattered Clouds
9:15 PM 73.4 °F 66.2 °F 78% 29.75 in 10.0 mi SSE 20.7 mph 29.9 mph N/A Thunderstorm Thunderstorm
9:35 PM 73.4 °F 64.4 °F 73% 29.79 in 10.0 mi SSE 15.0 mph 32.2 mph N/A Thunderstorm Thunderstorm
9:55 PM 73.4 °F 64.4 °F 73% 29.77 in 10.0 mi SE 16.1 mph 26.5 mph N/A Thunderstorm Overcast
10:15 PM 73.4 °F 66.2 °F 78% 29.79 in 10.0 mi SE 13.8 mph 24.2 mph N/A Thunderstorm Overcast
10:35 PM 73.4 °F 66.2 °F 78% 29.80 in 10.0 mi SE 17.3 mph 24.2 mph N/A Thunderstorm Overcast
10:55 PM 73.4 °F 66.2 °F 78% 29.80 in 10.0 mi SE 17.3 mph 25.3 mph N/A Thunderstorm Thunderstorm
11:15 PM 73.4 °F 66.2 °F 78% 29.83 in 10.0 mi SE 16.1 mph 25.3 mph N/A Thunderstorm Thunderstorm
11:35 PM - - N/A% 29.94 in - NW 28.8 mph - N/A Thunderstorm Thunderstorm
11:55 PM 62.6 °F 59.0 °F 88% 29.86 in 3.0 mi NW 5.8 mph 18.4 mph 0.39 in Rain , Thunderstorm Heavy Thunderstorms and Rain